sat.trackr.live / text

‹ back to catalog

STARLINK-5633

NORAD 55410 · 2023-014V

PAYLOAD ACTIVE UNKNOWN

§ Identity

Operator
Country
US
Launch date
2023-01-31
Launch site
AFWTR
Launch vehicle
Mass (kg)
RCS (m²)

Purposes: comms

External: N2YO · Heavens-Above · Gunter

§ Orbital elements

Epoch: 2026-05-25T01:05:12.154848Z

Period
96.11 min
Inclination
69.9993°
Eccentricity
0.0003459
Mean motion
14.98330033 rev/d
Perigee alt
569.7 km
Apogee alt
574.5 km
Semi-major
6,950.2 km
B*
2.1838e-5
RAAN
251.7659°
Arg perigee
269.1761°
Mean anomaly
90.9002°
Rev number
18,300

§ Raw data

STARLINK-56331 55410U 23014V   26145.04527957  .00000168  00000+0  21838-4 0  99922 55410  69.9993 251.7659 0003459 269.1761  90.9002 14.98330033183006

JSON: /api/v1/satellites/55410 · /tle

For live sub-satellite position, see the globe view (requires WebGL).

§ Visibility from observer

Set your observer location to see the next 7 days of passes ≥ 10°. The values pass through the URL so the page stays shareable.

No JS? Fill the form by hand. The geolocation button needs JavaScript.